To NAV CANADA Home Page Login to a new session Search on AWWS site Feedback and Comments Disclaimer Vers la page française équivalente Tips FAQ What's new on the site To the Forecasts and Observations / NOTAM section To "File a Flight Plan" website Publications and other links Update of the User's profile FIC Telephone Numbers My Weather Data Folder Route Weather Data Regional Weather Data Local Weather Data To the Forecasts and Observations / NOTAM section
Request Generated 02/11/2016 at 23:07:47 UTC . Weather information available at that time is displayed.

METAR/TAF

WHALE COVE/NU    

METAR CYXN 112300Z 33019G27KT 1/8SM IC +BLSN SCT230 M34/M37 A3019 RMK
BLSN2CI1 -33.0/-36.5/0.2MM/37.0CM/SNW CVR TRACE LOOSE/LAST OBS/NEXT
121300Z SLP227 DENSITY ALT MISG=
METAR CYXN 112200Z 34025G32KT 1/8SM IC +BLSN SCT230 M33/M37 A3016 RMK
BLSN2CI1 SLP218 DENSITY ALT MISG=
METAR CYXN 112100Z 35021G27KT 1/8SM IC +BLSN SCT230 M33/M37 A3015 RMK
BLSN2CI1 PRESRR SLP214 DENSITY ALT MISG=

CYXN - No TAF is issued for this station

Your time UTC time
Weather data provided by Environment Canada and NAV CANADA